Main page
METAR-TAF:

METAR-TAF

Airports :

Syros, Greece

Syros Island National Airport

latitude: 37-25-16N, longitude: 024-56-54E, elevation: 73 m

Current weather observation

The report was made 42 minutes ago, at 13:20 UTC
Wind 4 kt from the Northeast, varying between North and Southeast
Temperature 22°C
Humidity 65%
Pressure 1016 hPa
light rain

METAR: LGSO 211320Z AUTO 04004KT 350V130 //// -RA ////// 22/15 Q1016 RE//

Time: 17:02 (14:02 UTC)


TAF: missing

Weather observations and forecasts of more than 4000 airports (METAR and TAF reports).

The available stations are represented by yellow and red dots on the map.

Hover mouse over dot to see the name of the station.

Then click to see weather observations and forecasts.

To change the map : click on the green buttons with a black cross to zoom in, on the green button with a dash to zoom out, or on the green arrows for adjacent maps.


METAR-TAF: